,,PressureMeas_1m,,PRMeasQMR101_1,,RHStat155_1m_1,,SRMeasQMS101R_1m,,TAStat155_1m_1,,GenWind_1,,GenWind_1,
2019-01-28, 07:00:06,VALID,918.732,VALID,0.0,VALID,95.272,VALID,11.091,VALID,19.382,VALID,81.0,VALID,1.071,
2019-01-28, 07:01:06,VALID,918.737,VALID,0.0,VALID,95.327,VALID,11.321,VALID,19.353,VALID,74.0,VALID,1.695,
2019-01-28, 07:02:06,VALID,918.739,VALID,0.0,VALID,95.196,VALID,11.574,VALID,19.358,VALID,77.0,VALID,1.595,
2019-01-28, 07:03:06,VALID,918.756,VALID,0.0,VALID,94.953,VALID,11.859,VALID,19.374,VALID,71.0,VALID,1.972,
2019-01-28, 07:04:06,VALID,918.741,VALID,0.0,VALID,94.357,VALID,12.136,VALID,19.444,VALID,74.0,VALID,1.686,
2019-01-28, 07:05:06,VALID,918.743,VALID,0.0,VALID,94.197,VALID,12.457,VALID,19.485,VALID,80.0,VALID,1.881,
2019-01-28, 07:06:06,VALID,918.753,VALID,0.0,VALID,94.13,VALID,12.895,VALID,19.51,VALID,79.0,VALID,1.673,
2019-01-28, 07:07:06,VALID,918.758,VALID,0.0,VALID,94.122,VALID,13.47,VALID,19.526,VALID,75.0,VALID,1.486,
2019-01-28, 07:08:06,VALID,918.786,VALID,0.0,VALID,94.078,VALID,14.21,VALID,19.535,VALID,76.0,VALID,1.64,
2019-01-28, 07:09:06,VALID,918.794,VALID,0.0,VALID,94.14,VALID,15.131,VALID,19.527,VALID,76.0,VALID,1.586,
2019-01-28, 07:10:06,VALID,918.802,VALID,0.0,VALID,94.223,VALID,16.212,VALID,19.51,VALID,72.0,VALID,2.304,
2019-01-28, 07:11:06,VALID,918.828,VALID,0.0,VALID,94.029,VALID,17.558,VALID,19.513,VALID,70.0,VALID,2.197,
2019-01-28, 07:12:06,VALID,918.827,VALID,0.0,VALID,93.907,VALID,19.486,VALID,19.533,VALID,71.0,VALID,2.362,
2019-01-28, 07:13:06,VALID,918.838,VALID,0.0,VALID,93.841,VALID,22.32,VALID,19.545,VALID,69.0,VALID,2.368,
2019-01-28, 07:14:06,VALID,918.84,VALID,0.0,VALID,93.853,VALID,26.636,VALID,19.564,VALID,70.0,VALID,2.07,
2019-01-28, 07:15:06,VALID,918.848,VALID,0.0,VALID,93.59,VALID,32.717,VALID,19.586,VALID,70.0,VALID,2.528,
2019-01-28, 07:16:06,VALID,918.847,VALID,0.0,VALID,93.121,VALID,40.016,VALID,19.64,VALID,72.0,VALID,2.481,
2019-01-28, 07:17:06,VALID,918.844,VALID,0.0,VALID,93.136,VALID,48.085,VALID,19.689,VALID,69.0,VALID,1.875,
2019-01-28, 07:18:06,VALID,918.816,VALID,0.0,VALID,93.408,VALID,57.148,VALID,19.705,VALID,66.0,VALID,1.815,
2019-01-28, 07:19:06,VALID,918.855,VALID,0.0,VALID,93.38,VALID,66.337,VALID,19.699,VALID,68.0,VALID,2.157,
2019-01-28, 07:20:07,VALID,918.832,VALID,0.0,VALID,93.369,VALID,74.441,VALID,19.715,VALID,66.0,VALID,1.81,
2019-01-28, 07:21:07,VALID,918.84,VALID,0.0,VALID,93.36,VALID,81.519,VALID,19.746,VALID,62.0,VALID,1.543,
2019-01-28, 07:22:07,VALID,918.844,VALID,0.0,VALID,93.544,VALID,87.125,VALID,19.766,VALID,67.0,VALID,1.938,
2019-01-28, 07:23:07,VALID,918.843,VALID,0.0,VALID,93.294,VALID,90.491,VALID,19.77,VALID,64.0,VALID,1.992,
2019-01-28, 07:24:07,VALID,918.848,VALID,0.0,VALID,93.495,VALID,92.302,VALID,19.793,VALID,58.0,VALID,2.24,
2019-01-28, 07:25:07,VALID,918.859,VALID,0.0,VALID,93.386,VALID,95.236,VALID,19.829,VALID,64.0,VALID,2.201,
2019-01-28, 07:26:07,VALID,918.882,VALID,0.0,VALID,93.14,VALID,101.366,VALID,19.88,VALID,72.0,VALID,2.306,
2019-01-28, 07:27:07,VALID,918.889,VALID,0.0,VALID,92.768,VALID,110.022,VALID,19.901,VALID,70.0,VALID,2.423,
2019-01-28, 07:28:07,VALID,918.907,VALID,0.0,VALID,92.444,VALID,119.041,VALID,19.925,VALID,64.0,VALID,2.403,
2019-01-28, 07:29:07,VALID,918.928,VALID,0.0,VALID,92.409,VALID,126.332,VALID,19.974,VALID,65.0,VALID,2.1,
2019-01-28, 07:30:07,VALID,918.926,VALID,0.0,VALID,92.478,VALID,129.985,VALID,20.015,VALID,65.0,VALID,2.15,
2019-01-28, 07:31:07,VALID,918.927,VALID,0.0,VALID,91.996,VALID,130.958,VALID,20.086,VALID,69.0,VALID,1.688,
2019-01-28, 07:32:07,VALID,918.936,VALID,0.0,VALID,92.278,VALID,130.7,VALID,20.167,VALID,60.0,VALID,1.851,
2019-01-28, 07:33:07,VALID,918.96,VALID,0.0,VALID,91.936,VALID,130.226,VALID,20.203,VALID,61.0,VALID,1.794,
2019-01-28, 07:34:07,VALID,918.944,VALID,0.0,VALID,91.697,VALID,131.018,VALID,20.273,VALID,69.0,VALID,1.582,
2019-01-28, 07:35:07,VALID,918.972,VALID,0.0,VALID,90.559,VALID,144.188,VALID,20.313,VALID,75.0,VALID,2.415,
2019-01-28, 07:36:07,VALID,918.964,VALID,0.0,VALID,89.703,VALID,158.983,VALID,20.356,VALID,80.0,VALID,1.896,
2019-01-28, 07:37:07,VALID,918.996,VALID,0.0,VALID,90.027,VALID,155.425,VALID,20.461,VALID,71.0,VALID,0.922,
2019-01-28, 07:38:07,VALID,919.017,VALID,0.0,VALID,89.704,VALID,148.754,VALID,20.559,VALID,70.0,VALID,1.0,
2019-01-28, 07:39:07,VALID,919.03,VALID,0.0,VALID,88.56,VALID,164.947,VALID,20.623,VALID,80.0,VALID,0.89,
2019-01-28, 07:40:07,VALID,919.027,VALID,0.0,VALID,89.055,VALID,185.607,VALID,20.718,VALID,74.0,VALID,0.77,
2019-01-28, 07:41:07,VALID,919.015,VALID,0.0,VALID,88.311,VALID,184.682,VALID,20.805,VALID,73.0,VALID,1.579,
2019-01-28, 07:42:07,VALID,919.039,VALID,0.0,VALID,87.713,VALID,281.049,VALID,20.89,VALID,75.0,VALID,1.929,
2019-01-28, 07:43:07,VALID,919.041,VALID,0.0,VALID,87.269,VALID,225.496,VALID,21.011,VALID,77.0,VALID,1.669,
2019-01-28, 07:44:07,VALID,919.081,VALID,0.0,VALID,86.647,VALID,262.133,VALID,21.158,VALID,74.0,VALID,1.369,
2019-01-28, 07:45:07,VALID,919.133,VALID,0.0,VALID,86.018,VALID,267.769,VALID,21.294,VALID,64.0,VALID,1.092,
2019-01-28, 07:46:07,VALID,919.156,VALID,0.0,VALID,84.403,VALID,300.432,VALID,21.416,VALID,67.0,VALID,1.278,
2019-01-28, 07:47:07,VALID,919.174,VALID,0.0,VALID,84.545,VALID,298.262,VALID,21.533,VALID,72.0,VALID,0.728,
2019-01-28, 07:48:07,VALID,919.197,VALID,0.0,VALID,84.254,VALID,311.15,VALID,21.703,VALID,84.0,VALID,0.368,
2019-01-28, 07:49:07,VALID,919.194,VALID,0.0,VALID,83.272,VALID,306.031,VALID,21.888,VALID,60.0,VALID,0.572,
2019-01-28, 07:50:07,VALID,919.19,VALID,0.0,VALID,83.313,VALID,314.435,VALID,22.134,VALID,85.0,VALID,0.556,
2019-01-28, 07:51:07,VALID,919.171,VALID,0.0,VALID,82.377,VALID,244.473,VALID,22.104,VALID,91.0,VALID,0.742,
2019-01-28, 07:52:07,VALID,919.166,VALID,0.0,VALID,83.179,VALID,284.662,VALID,21.948,VALID,91.0,VALID,0.182,
2019-01-28, 07:53:07,VALID,919.159,VALID,0.0,VALID,83.918,VALID,313.5,VALID,21.972,VALID,91.0,VALID,0.499,
2019-01-28, 07:54:07,VALID,919.168,VALID,0.0,VALID,84.017,VALID,314.2,VALID,21.905,VALID,91.0,VALID,0.329,
2019-01-28, 07:55:07,VALID,919.143,VALID,0.0,VALID,84.511,VALID,306.03,VALID,21.872,INVALID,360.0,VALID,0.067,
2019-01-28, 07:56:07,VALID,919.149,VALID,0.0,VALID,83.85,VALID,228.842,VALID,22.068,INVALID,360.0,VALID,0.0,
2019-01-28, 07:57:07,VALID,919.129,VALID,0.0,VALID,83.551,VALID,133.39,VALID,22.167,INVALID,360.0,VALID,0.0,
2019-01-28, 07:58:07,VALID,919.12,VALID,0.0,VALID,84.518,VALID,196.944,VALID,22.21,INVALID,360.0,VALID,0.091,
2019-01-28, 07:59:07,VALID,919.107,VALID,0.0,VALID,84.177,VALID,154.665,VALID,22.264,VALID,334.0,VALID,0.418,
2019-01-28, 08:00:07,VALID,919.102,VALID,0.0,VALID,83.596,VALID,182.645,VALID,22.06,VALID,329.0,VALID,0.145,
2019-01-28, 08:01:07,VALID,919.102,VALID,0.0,VALID,84.406,VALID,219.986,VALID,21.985,VALID,330.0,VALID,0.116,
2019-01-28, 08:02:07,VALID,919.122,VALID,0.0,VALID,84.091,VALID,199.032,VALID,21.96,INVALID,360.0,VALID,0.0,
2019-01-28, 08:03:07,VALID,919.138,VALID,0.0,VALID,84.47,VALID,242.957,VALID,22.002,INVALID,360.0,VALID,0.0,
2019-01-28, 08:04:07,VALID,919.155,VALID,0.0,VALID,83.929,VALID,266.544,VALID,22.258,INVALID,360.0,VALID,0.489,
2019-01-28, 08:05:07,VALID,919.155,VALID,0.0,VALID,81.185,VALID,274.921,VALID,22.531,VALID,83.0,VALID,1.539,
2019-01-28, 08:06:07,VALID,919.19,VALID,0.0,VALID,81.547,VALID,293.904,VALID,22.592,VALID,57.0,VALID,1.452,
2019-01-28, 08:07:07,VALID,919.228,VALID,0.0,VALID,81.3,VALID,298.635,VALID,22.664,VALID,60.0,VALID,0.623,
2019-01-28, 08:08:07,VALID,919.267,VALID,0.0,VALID,80.331,VALID,304.747,VALID,22.842,INVALID,360.0,VALID,0.123,
2019-01-28, 08:09:07,VALID,919.323,VALID,0.0,VALID,79.566,VALID,311.818,VALID,22.892,VALID,93.0,VALID,0.481,
2019-01-28, 08:10:07,VALID,919.363,VALID,0.0,VALID,81.196,VALID,319.527,VALID,22.54,VALID,93.0,VALID,0.596,
2019-01-28, 08:11:07,VALID,919.398,VALID,0.0,VALID,82.809,VALID,327.038,VALID,22.17,VALID,93.0,VALID,0.33,
2019-01-28, 08:12:07,VALID,919.411,VALID,0.0,VALID,84.215,VALID,333.976,VALID,21.992,VALID,93.0,VALID,0.515,
2019-01-28, 08:13:07,VALID,919.42,VALID,0.0,VALID,84.893,VALID,339.253,VALID,21.863,VALID,93.0,VALID,0.696,
2019-01-28, 08:14:07,VALID,919.415,VALID,0.0,VALID,84.995,VALID,343.349,VALID,21.754,VALID,48.0,VALID,0.736,
2019-01-28, 08:15:07,VALID,919.434,VALID,0.0,VALID,85.625,VALID,345.419,VALID,21.776,INVALID,360.0,VALID,0.129,
2019-01-28, 08:16:07,VALID,919.434,VALID,0.0,VALID,85.07,VALID,346.371,VALID,22.024,INVALID,360.0,VALID,0.054,
2019-01-28, 08:17:07,VALID,919.429,VALID,0.0,VALID,84.442,VALID,347.701,VALID,22.395,INVALID,360.0,VALID,0.065,
2019-01-28, 08:18:07,VALID,919.441,VALID,0.0,VALID,81.854,VALID,348.995,VALID,22.595,VALID,318.0,VALID,0.435,
2019-01-28, 08:19:07,VALID,919.461,VALID,0.0,VALID,82.245,VALID,351.828,VALID,22.495,INVALID,360.0,VALID,0.154,
2019-01-28, 08:20:07,VALID,919.466,VALID,0.0,VALID,82.575,VALID,353.742,VALID,22.488,VALID,285.0,VALID,0.452,
2019-01-28, 08:21:07,VALID,919.47,VALID,0.0,VALID,82.893,VALID,358.832,VALID,22.45,VALID,312.0,VALID,0.126,
2019-01-28, 08:22:07,VALID,919.485,VALID,0.0,VALID,82.219,VALID,364.625,VALID,22.474,INVALID,360.0,VALID,0.063,
2019-01-28, 08:23:07,VALID,919.474,VALID,0.0,VALID,80.41,VALID,369.816,VALID,22.728,VALID,97.0,VALID,0.675,
2019-01-28, 08:24:07,VALID,919.49,VALID,0.0,VALID,79.516,VALID,372.514,VALID,23.112,INVALID,360.0,VALID,0.153,
2019-01-28, 08:25:07,VALID,919.494,VALID,0.0,VALID,77.525,VALID,372.97,VALID,23.494,INVALID,360.0,VALID,0.298,
2019-01-28, 08:26:07,VALID,919.521,VALID,0.0,VALID,75.527,VALID,386.13,VALID,23.768,VALID,128.0,VALID,0.384,
2019-01-28, 08:27:07,VALID,919.523,VALID,0.0,VALID,75.451,VALID,392.422,VALID,23.652,VALID,91.0,VALID,0.873,
2019-01-28, 08:28:07,VALID,919.558,VALID,0.0,VALID,74.799,VALID,395.937,VALID,23.733,VALID,84.0,VALID,0.976,
2019-01-28, 08:29:07,VALID,919.564,VALID,0.0,VALID,74.943,VALID,401.182,VALID,23.866,VALID,75.0,VALID,0.382,
2019-01-28, 08:30:07,VALID,919.575,VALID,0.0,VALID,74.555,VALID,351.198,VALID,24.099,VALID,74.0,VALID,0.303,
2019-01-28, 08:31:07,VALID,919.578,VALID,0.0,VALID,74.016,VALID,312.126,VALID,24.303,VALID,82.0,VALID,0.364,
2019-01-28, 08:32:07,VALID,919.558,VALID,0.0,VALID,73.727,VALID,416.162,VALID,24.339,VALID,83.0,VALID,0.466,
2019-01-28, 08:33:07,VALID,919.555,VALID,0.0,VALID,74.873,VALID,425.065,VALID,24.475,VALID,85.0,VALID,0.358,
2019-01-28, 08:34:07,VALID,919.543,VALID,0.0,VALID,75.508,VALID,430.495,VALID,24.752,VALID,34.0,VALID,0.248,
2019-01-28, 08:35:07,VALID,919.541,VALID,0.0,VALID,72.75,VALID,435.148,VALID,24.871,INVALID,360.0,VALID,0.038,
2019-01-28, 08:36:07,VALID,919.541,VALID,0.0,VALID,73.978,VALID,438.615,VALID,25.039,VALID,40.0,VALID,0.33,
2019-01-28, 08:37:07,VALID,919.523,VALID,0.0,VALID,72.845,VALID,443.065,VALID,24.819,VALID,22.0,VALID,1.261,
2019-01-28, 08:38:07,VALID,919.495,VALID,0.0,VALID,76.663,VALID,446.253,VALID,24.307,VALID,33.0,VALID,1.015,
2019-01-28, 08:39:07,VALID,919.502,VALID,0.0,VALID,76.734,VALID,453.923,VALID,24.154,VALID,61.0,VALID,0.949,
2019-01-28, 08:40:07,VALID,919.477,VALID,0.0,VALID,76.133,VALID,460.103,VALID,24.031,VALID,69.0,VALID,0.927,
2019-01-28, 08:41:07,VALID,919.47,VALID,0.0,VALID,76.593,VALID,467.478,VALID,23.98,VALID,57.0,VALID,1.691,
2019-01-28, 08:42:07,VALID,919.478,VALID,0.0,VALID,76.027,VALID,474.547,VALID,23.971,VALID,70.0,VALID,1.671,
2019-01-28, 08:43:07,VALID,919.501,VALID,0.0,VALID,75.502,VALID,481.332,VALID,23.716,VALID,72.0,VALID,1.42,
2019-01-28, 08:44:07,VALID,919.515,VALID,0.0,VALID,78.197,VALID,490.924,VALID,23.648,VALID,73.0,VALID,1.335,
2019-01-28, 08:45:07,VALID,919.542,VALID,0.0,VALID,76.139,VALID,499.321,VALID,23.781,VALID,99.0,VALID,1.011,
2019-01-28, 08:46:07,VALID,919.58,VALID,0.0,VALID,74.472,VALID,508.086,VALID,23.847,VALID,84.0,VALID,0.631,
2019-01-28, 08:47:07,VALID,919.602,VALID,0.0,VALID,75.648,VALID,523.794,VALID,23.981,INVALID,360.0,VALID,0.067,
2019-01-28, 08:48:07,VALID,919.623,VALID,0.0,VALID,75.286,VALID,542.237,VALID,24.28,VALID,52.0,VALID,0.855,
2019-01-28, 08:49:07,VALID,919.652,VALID,0.0,VALID,74.195,VALID,496.505,VALID,24.415,VALID,62.0,VALID,0.852,
2019-01-28, 08:50:07,VALID,919.649,VALID,0.0,VALID,73.027,VALID,443.056,VALID,24.563,VALID,72.0,VALID,1.048,
2019-01-28, 08:51:07,VALID,919.661,VALID,0.0,VALID,74.6,VALID,414.572,VALID,24.636,VALID,68.0,VALID,0.816,
2019-01-28, 08:52:07,VALID,919.699,VALID,0.0,VALID,73.673,VALID,446.822,VALID,24.77,VALID,107.0,VALID,1.71,
2019-01-28, 08:53:07,VALID,919.725,VALID,0.0,VALID,71.941,VALID,436.867,VALID,24.627,VALID,96.0,VALID,1.28,
2019-01-28, 08:54:07,VALID,919.735,VALID,0.0,VALID,73.097,VALID,475.005,VALID,24.47,VALID,86.0,VALID,1.214,
2019-01-28, 08:55:07,VALID,919.77,VALID,0.0,VALID,74.447,VALID,518.98,VALID,24.276,VALID,120.0,VALID,1.025,
2019-01-28, 08:56:07,VALID,919.781,VALID,0.0,VALID,75.72,VALID,534.263,VALID,24.291,VALID,118.0,VALID,0.788,
2019-01-28, 08:57:07,VALID,919.807,VALID,0.0,VALID,74.163,VALID,529.086,VALID,24.388,VALID,93.0,VALID,1.837,
2019-01-28, 08:58:07,VALID,919.809,VALID,0.0,VALID,71.906,VALID,511.303,VALID,24.211,VALID,73.0,VALID,1.13,
2019-01-28, 08:59:07,VALID,919.811,VALID,0.0,VALID,74.846,VALID,480.121,VALID,24.077,VALID,50.0,VALID,1.222,
2019-01-28, 09:00:07,VALID,919.811,VALID,0.0,VALID,77.183,VALID,515.924,VALID,24.088,VALID,56.0,VALID,1.461,
2019-01-28, 09:01:07,VALID,919.825,VALID,0.0,VALID,76.292,VALID,471.571,VALID,24.101,VALID,43.0,VALID,0.756,
2019-01-28, 09:02:07,VALID,919.834,VALID,0.0,VALID,75.906,VALID,428.05,VALID,24.279,VALID,97.0,VALID,0.832,
2019-01-28, 09:03:07,VALID,919.826,VALID,0.0,VALID,74.675,VALID,406.987,VALID,24.515,VALID,85.0,VALID,0.658,
2019-01-28, 09:04:07,VALID,919.855,VALID,0.0,VALID,73.451,VALID,419.349,VALID,24.674,VALID,117.0,VALID,0.756,
2019-01-28, 09:05:07,VALID,919.891,VALID,0.0,VALID,72.862,VALID,473.523,VALID,24.751,VALID,110.0,VALID,1.458,
2019-01-28, 09:06:07,VALID,919.917,VALID,0.0,VALID,72.766,VALID,539.896,VALID,24.545,VALID,68.0,VALID,1.18,
2019-01-28, 09:07:07,VALID,919.92,VALID,0.0,VALID,72.813,VALID,564.544,VALID,24.437,VALID,62.0,VALID,0.972,
2019-01-28, 09:08:07,VALID,919.926,VALID,0.0,VALID,74.855,VALID,545.089,VALID,24.435,VALID,72.0,VALID,0.604,
2019-01-28, 09:09:07,VALID,919.936,VALID,0.0,VALID,74.752,VALID,489.396,VALID,24.676,VALID,86.0,VALID,1.4,
2019-01-28, 09:10:07,VALID,919.958,VALID,0.0,VALID,73.94,VALID,552.918,VALID,24.678,VALID,60.0,VALID,1.217,
2019-01-28, 09:11:07,VALID,919.956,VALID,0.0,VALID,72.398,VALID,717.145,VALID,24.649,VALID,80.0,VALID,1.629,
2019-01-28, 09:12:07,VALID,919.98,VALID,0.0,VALID,71.964,VALID,594.19,VALID,24.479,VALID,115.0,VALID,1.561,
2019-01-28, 09:13:07,VALID,919.999,VALID,0.0,VALID,72.568,VALID,530.677,VALID,24.459,VALID,113.0,VALID,0.927,
2019-01-28, 09:14:07,VALID,920.015,VALID,0.0,VALID,71.104,VALID,393.574,VALID,24.395,VALID,112.0,VALID,1.453,
2019-01-28, 09:15:07,VALID,919.993,VALID,0.0,VALID,72.02,VALID,336.612,VALID,24.16,VALID,87.0,VALID,0.522,
2019-01-28, 09:16:07,VALID,920.002,VALID,0.0,VALID,74.813,VALID,324.561,VALID,24.213,VALID,68.0,VALID,1.113,
2019-01-28, 09:17:07,VALID,920.017,VALID,0.0,VALID,74.261,VALID,323.502,VALID,24.185,VALID,39.0,VALID,0.818,
2019-01-28, 09:18:07,VALID,920.009,VALID,0.0,VALID,76.366,VALID,316.448,VALID,24.128,VALID,34.0,VALID,0.446,
2019-01-28, 09:19:07,VALID,920.022,VALID,0.0,VALID,75.174,VALID,302.562,VALID,24.21,VALID,182.0,VALID,1.147,
2019-01-28, 09:20:07,VALID,920.039,VALID,0.0,VALID,74.137,VALID,318.442,VALID,24.126,VALID,148.0,VALID,0.981,
2019-01-28, 09:21:07,VALID,920.053,VALID,0.0,VALID,73.982,VALID,319.966,VALID,24.083,VALID,162.0,VALID,1.069,
2019-01-28, 09:22:07,VALID,920.053,VALID,0.0,VALID,74.138,VALID,327.239,VALID,24.079,VALID,156.0,VALID,0.614,
2019-01-28, 09:23:07,VALID,920.072,VALID,0.0,VALID,74.278,VALID,335.624,VALID,24.143,VALID,112.0,VALID,0.209,
2019-01-28, 09:24:07,VALID,920.12,VALID,0.0,VALID,73.633,VALID,344.931,VALID,24.257,VALID,142.0,VALID,0.3,
2019-01-28, 09:25:07,VALID,920.134,VALID,0.0,VALID,72.968,VALID,356.908,VALID,24.269,VALID,181.0,VALID,0.131,
2019-01-28, 09:26:07,VALID,920.141,VALID,0.0,VALID,73.667,VALID,365.234,VALID,24.308,VALID,191.0,VALID,0.512,
2019-01-28, 09:27:07,VALID,920.142,VALID,0.0,VALID,73.503,VALID,360.477,VALID,24.271,VALID,188.0,VALID,0.611,
2019-01-28, 09:28:07,VALID,920.136,VALID,0.0,VALID,73.816,VALID,359.813,VALID,24.245,VALID,172.0,VALID,1.005,
2019-01-28, 09:29:06,VALID,920.127,VALID,0.0,VALID,73.04,VALID,371.316,VALID,24.195,VALID,174.0,VALID,1.04,
2019-01-28, 09:30:06,VALID,920.125,VALID,0.0,VALID,73.081,VALID,390.229,VALID,24.061,VALID,172.0,VALID,0.965,
2019-01-28, 09:31:06,VALID,920.107,VALID,0.0,VALID,74.781,VALID,426.492,VALID,24.001,VALID,159.0,VALID,0.679,
2019-01-28, 09:32:06,VALID,920.116,VALID,0.0,VALID,75.311,VALID,514.84,VALID,24.167,VALID,128.0,VALID,1.002,
2019-01-28, 09:33:06,VALID,920.115,VALID,0.0,VALID,73.507,VALID,488.511,VALID,24.383,VALID,106.0,VALID,1.182,
2019-01-28, 09:34:06,VALID,920.091,VALID,0.0,VALID,72.245,VALID,506.537,VALID,24.44,VALID,108.0,VALID,0.761,
2019-01-28, 09:35:06,VALID,920.068,VALID,0.0,VALID,72.805,VALID,494.619,VALID,24.548,VALID,94.0,VALID,0.502,
2019-01-28, 09:36:06,VALID,920.055,VALID,0.0,VALID,72.799,VALID,517.223,VALID,24.839,VALID,180.0,VALID,0.52,
2019-01-28, 09:37:06,VALID,920.06,VALID,0.0,VALID,71.373,VALID,515.114,VALID,24.96,VALID,179.0,VALID,0.705,
2019-01-28, 09:38:06,VALID,920.061,VALID,0.0,VALID,71.206,VALID,482.062,VALID,24.882,VALID,191.0,VALID,0.555,
2019-01-28, 09:39:06,VALID,920.074,VALID,0.0,VALID,71.939,VALID,627.494,VALID,24.936,VALID,162.0,VALID,0.746,
2019-01-28, 09:40:06,VALID,920.062,VALID,0.0,VALID,70.244,VALID,731.86,VALID,25.004,VALID,116.0,VALID,0.621,
2019-01-28, 09:41:06,VALID,920.053,VALID,0.0,VALID,70.132,VALID,683.485,VALID,25.285,VALID,143.0,VALID,0.859,
2019-01-28, 09:42:06,VALID,920.071,VALID,0.0,VALID,68.209,VALID,588.178,VALID,25.349,VALID,141.0,VALID,0.416,
2019-01-28, 09:43:06,VALID,920.078,VALID,0.0,VALID,69.399,VALID,631.127,VALID,25.418,VALID,153.0,VALID,1.083,
2019-01-28, 09:44:06,VALID,920.09,VALID,0.0,VALID,68.921,VALID,646.123,VALID,25.48,VALID,123.0,VALID,0.66,
2019-01-28, 09:45:06,VALID,920.11,VALID,0.0,VALID,68.374,VALID,640.396,VALID,25.546,VALID,159.0,VALID,1.091,
2019-01-28, 09:46:06,VALID,920.106,VALID,0.0,VALID,67.004,VALID,603.213,VALID,25.33,VALID,172.0,VALID,1.792,
2019-01-28, 09:47:06,VALID,920.108,VALID,0.0,VALID,67.657,VALID,606.079,VALID,25.037,VALID,143.0,VALID,1.364,
2019-01-28, 09:48:06,VALID,920.093,VALID,0.0,VALID,69.292,VALID,643.416,VALID,24.924,VALID,157.0,VALID,0.875,
2019-01-28, 09:49:06,VALID,920.104,VALID,0.0,VALID,69.538,VALID,603.101,VALID,24.877,VALID,175.0,VALID,1.341,
2019-01-28, 09:50:06,VALID,920.105,VALID,0.0,VALID,69.196,VALID,431.03,VALID,24.866,VALID,168.0,VALID,0.952,
2019-01-28, 09:51:06,VALID,920.122,VALID,0.0,VALID,69.003,VALID,450.495,VALID,24.891,VALID,153.0,VALID,1.188,
2019-01-28, 09:52:06,VALID,920.128,VALID,0.0,VALID,69.596,VALID,475.773,VALID,24.796,VALID,147.0,VALID,1.027,
2019-01-28, 09:53:06,VALID,920.13,VALID,0.0,VALID,69.758,VALID,403.079,VALID,24.712,VALID,173.0,VALID,1.284,
2019-01-28, 09:54:06,VALID,920.16,VALID,0.0,VALID,70.883,VALID,445.764,VALID,24.655,VALID,156.0,VALID,0.576,
2019-01-28, 09:55:06,VALID,920.177,VALID,0.0,VALID,69.783,VALID,453.647,VALID,24.799,VALID,161.0,VALID,1.241,
2019-01-28, 09:56:06,VALID,920.184,VALID,0.0,VALID,70.151,VALID,461.61,VALID,24.72,VALID,167.0,VALID,1.011,
2019-01-28, 09:57:06,VALID,920.194,VALID,0.0,VALID,70.145,VALID,432.607,VALID,24.712,VALID,204.0,VALID,0.34,
2019-01-28, 09:58:06,VALID,920.199,VALID,0.0,VALID,70.419,VALID,406.695,VALID,24.842,VALID,180.0,VALID,0.952,
2019-01-28, 09:59:06,VALID,920.209,VALID,0.0,VALID,70.486,VALID,379.286,VALID,24.828,VALID,166.0,VALID,0.891,
2019-01-28, 10:00:06,VALID,920.232,VALID,0.0,VALID,69.924,VALID,352.313,VALID,24.845,VALID,165.0,VALID,1.718,
2019-01-28, 10:01:06,VALID,920.252,VALID,0.0,VALID,70.041,VALID,329.033,VALID,24.624,VALID,150.0,VALID,1.352,
2019-01-28, 10:02:06,VALID,920.247,VALID,0.0,VALID,70.266,VALID,317.943,VALID,24.621,VALID,123.0,VALID,0.332,
2019-01-28, 10:03:06,VALID,920.268,VALID,0.0,VALID,70.314,VALID,314.815,VALID,24.612,VALID,259.0,VALID,0.72,
2019-01-28, 10:04:06,VALID,920.276,VALID,0.0,VALID,70.753,VALID,317.283,VALID,24.552,VALID,230.0,VALID,0.361,
2019-01-28, 10:05:06,VALID,920.285,VALID,0.0,VALID,71.917,VALID,322.365,VALID,24.712,VALID,250.0,VALID,0.214,
2019-01-28, 10:06:06,VALID,920.298,VALID,0.0,VALID,70.126,VALID,325.556,VALID,24.803,VALID,169.0,VALID,0.175,
2019-01-28, 10:07:06,VALID,920.305,VALID,0.0,VALID,70.255,VALID,321.699,VALID,24.867,INVALID,360.0,VALID,0.08,
2019-01-28, 10:08:06,VALID,920.3,VALID,0.0,VALID,70.549,VALID,312.135,VALID,24.991,VALID,203.0,VALID,0.3,
2019-01-28, 10:09:06,VALID,920.304,VALID,0.0,VALID,69.327,VALID,309.447,VALID,25.035,VALID,244.0,VALID,0.482,
2019-01-28, 10:10:06,VALID,920.316,VALID,0.0,VALID,70.48,VALID,304.121,VALID,24.904,VALID,263.0,VALID,0.418,
2019-01-28, 10:11:06,VALID,920.312,VALID,0.0,VALID,70.359,VALID,295.51,VALID,24.848,VALID,284.0,VALID,0.545,
2019-01-28, 10:12:06,VALID,920.32,VALID,0.0,VALID,71.879,VALID,276.249,VALID,24.81,VALID,288.0,VALID,0.284,
2019-01-28, 10:13:06,VALID,920.333,VALID,0.0,VALID,73.466,VALID,258.157,VALID,24.785,INVALID,360.0,VALID,0.06,
2019-01-28, 10:14:06,VALID,920.321,VALID,0.0,VALID,74.133,VALID,246.016,VALID,24.766,VALID,23.0,VALID,0.625,
2019-01-28, 10:15:06,VALID,920.316,VALID,0.0,VALID,75.03,VALID,235.205,VALID,24.679,VALID,26.0,VALID,0.593,
2019-01-28, 10:16:06,VALID,920.317,VALID,0.0,VALID,74.813,VALID,222.17,VALID,24.631,VALID,21.0,VALID,0.539,
2019-01-28, 10:17:06,VALID,920.32,VALID,0.0,VALID,76.797,VALID,209.83,VALID,24.538,VALID,357.0,VALID,0.333,
2019-01-28, 10:18:06,VALID,920.323,VALID,0.0,VALID,76.926,VALID,200.923,VALID,24.554,INVALID,360.0,VALID,0.032,
2019-01-28, 10:19:06,VALID,920.315,VALID,0.0,VALID,75.795,VALID,196.504,VALID,24.533,INVALID,360.0,VALID,0.0,
2019-01-28, 10:20:06,VALID,920.318,VALID,0.0,VALID,76.596,VALID,197.256,VALID,24.614,INVALID,360.0,VALID,0.123,
2019-01-28, 10:21:06,VALID,920.306,VALID,0.0,VALID,76.64,VALID,197.192,VALID,24.642,VALID,11.0,VALID,0.179,
2019-01-28, 10:22:06,VALID,920.308,VALID,0.0,VALID,76.518,VALID,196.537,VALID,24.628,VALID,360.0,VALID,0.325,
2019-01-28, 10:23:06,VALID,920.311,VALID,0.0,VALID,76.657,VALID,196.48,VALID,24.614,VALID,23.0,VALID,0.482,
2019-01-28, 10:24:06,VALID,920.32,VALID,0.0,VALID,77.811,VALID,197.789,VALID,24.647,VALID,355.0,VALID,0.137,
2019-01-28, 10:25:06,VALID,920.322,VALID,0.0,VALID,76.984,VALID,201.461,VALID,24.622,VALID,360.0,VALID,0.418,
2019-01-28, 10:26:06,VALID,920.327,VALID,0.0,VALID,76.337,VALID,208.288,VALID,24.548,INVALID,360.0,VALID,0.036,
2019-01-28, 10:27:06,VALID,920.324,VALID,0.0,VALID,76.487,VALID,217.975,VALID,24.509,INVALID,360.0,VALID,0.0,
2019-01-28, 10:28:06,VALID,920.31,VALID,0.0,VALID,76.601,VALID,228.211,VALID,24.493,INVALID,360.0,VALID,0.0,
2019-01-28, 10:29:06,VALID,920.32,VALID,0.0,VALID,76.575,VALID,238.579,VALID,24.454,INVALID,360.0,VALID,0.0,
2019-01-28, 10:30:06,VALID,920.321,VALID,0.0,VALID,77.018,VALID,246.64,VALID,24.465,INVALID,360.0,VALID,0.0,
2019-01-28, 10:31:06,VALID,920.336,VALID,0.0,VALID,77.334,VALID,251.599,VALID,24.454,INVALID,360.0,VALID,0.0,
2019-01-28, 10:32:06,VALID,920.336,VALID,0.0,VALID,75.98,VALID,255.042,VALID,24.387,INVALID,360.0,VALID,0.0,
2019-01-28, 10:33:06,VALID,920.343,VALID,0.0,VALID,77.094,VALID,258.137,VALID,24.44,INVALID,360.0,VALID,0.0,
2019-01-28, 10:34:06,VALID,920.365,VALID,0.0,VALID,74.627,VALID,262.808,VALID,24.482,INVALID,360.0,VALID,0.0,
2019-01-28, 10:35:06,VALID,920.372,VALID,0.0,VALID,73.726,VALID,269.508,VALID,24.584,INVALID,360.0,VALID,0.0,
2019-01-28, 10:36:06,VALID,920.393,VALID,0.0,VALID,75.048,VALID,279.345,VALID,24.744,INVALID,360.0,VALID,0.0,